Yatton Keynell, United Kingdom

11:39 AM BST on July 16, 2018 (GMT +0100)
Yatton Keynell

Weather History for 03740 - June, 2002

Change the Weather History Date:

Saturday, June 22, 2002

  Actual Average Record
Temperature  
Mean Temperature 56 °F -  
Max Temperature 60 °F 68 °F - ()
Min Temperature 51 °F 52 °F - ()
Degree Days  
Heating Degree Days 10    
Growing Degree Days 6 (Base 50)    
Moisture  
Dew Point 52 °F    
Average Humidity 85    
Maximum Humidity 100    
Minimum Humidity 72    
Precipitation  
Precipitation 0.00 in 0.07 in - ()
Sea Level Pressure  
Sea Level Pressure 30.05 in    
Wind  
Wind Speed 9 mph ()    
Max Wind Speed 15 mph    
Max Gust Speed -    
Visibility 5.8 miles    
Events      
T = Trace of Precipitation, MM = Missing Value Source: Averaged Metar Reports

Daily Weather History Graph

Daily Weather History Graph

Search for Another Location

Airport or City:

Astronomy

Jun. 22, 2002 Rise Set
Actual Time 4:50 AM BST 9:29 PM BST
Civil Twilight 4:02 AM BST 10:16 PM BST
Nautical Twilight 2:48 AM BST 11:31 PM BST
Astronomical Twilight 1:42 AM BST 12:37 AM BST
Moon 7:00 PM BST (6/22) 3:07 AM BST (6/22)
Length of Visible Light 18h 13m
Length of Day
16h 38m
Waxing Gibbous, 93% of the Moon is Illuminated
Jun 22
Waxing Gibbous
Jun 24
Full
Jul 2
Last Quarter
Jul 10
New
Jul 17
First Quarter

Hourly Weather History & Observations

Time (BST) Temp. Dew Point Humidity Pressure Visibility Wind Dir Wind Speed Gust Speed Precip Events Conditions
12:50 AM 55.4 °F 53.6 °F 94% 30.04 in 3.7 mi South 9.2 mph - N/A   Light Drizzle
1:19 AM 55.4 °F 53.6 °F 94% 30.04 in - SSW 8.1 mph - N/A   Light Drizzle
1:50 AM 55.4 °F 55.4 °F 100% 30.01 in 2.5 mi South 9.2 mph - N/A   Overcast
2:50 AM 57.2 °F 55.4 °F 94% 30.04 in 3.1 mi SSW 8.1 mph - N/A   Overcast
3:50 AM 57.2 °F 55.4 °F 94% 30.01 in 6.2 mi SSW 6.9 mph - N/A   Mostly Cloudy
4:50 AM 55.4 °F 55.4 °F 100% 30.04 in 6.2 mi SW 9.2 mph - N/A   Mostly Cloudy
5:50 AM 55.4 °F 55.4 °F 100% 30.04 in 6.2 mi SW 8.1 mph - N/A   Scattered Clouds
6:07 AM 55.4 °F 55.4 °F 100% 30.04 in 6.2 mi SSW 6.9 mph - N/A   Mostly Cloudy
6:50 AM 57.2 °F 53.6 °F 88% 30.04 in 6.2 mi SSW 8.1 mph - N/A   Mostly Cloudy
7:50 AM 57.2 °F 53.6 °F 88% 30.04 in 6.2 mi SSW 10.4 mph - N/A   Mostly Cloudy
8:50 AM 59.0 °F 53.6 °F 82% 30.06 in 6.2 mi SW 12.7 mph - N/A   Mostly Cloudy
9:50 AM 59.0 °F 51.8 °F 77% 30.06 in 6.2 mi SW 13.8 mph - N/A   Mostly Cloudy
10:50 AM 59.0 °F 51.8 °F 77% 30.06 in 6.2 mi SW 13.8 mph - N/A   Mostly Cloudy
11:50 AM 59.0 °F 51.8 °F 77% 30.09 in 6.2 mi West 11.5 mph - N/A   Mostly Cloudy
12:50 PM 60.8 °F 51.8 °F 72% 30.06 in 6.2 mi WSW 10.4 mph - N/A   Mostly Cloudy
1:50 PM 60.8 °F 51.8 °F 72% 30.06 in 6.2 mi SW 12.7 mph - N/A   Mostly Cloudy
2:50 PM 60.8 °F 53.6 °F 77% 30.06 in 6.2 mi West 12.7 mph - N/A   Mostly Cloudy
3:50 PM 59.0 °F 51.8 °F 77% 30.06 in 6.2 mi West 13.8 mph - N/A   Scattered Clouds
4:50 PM 59.0 °F 51.8 °F 77% 30.06 in 6.2 mi West 12.7 mph - N/A   Scattered Clouds
5:50 PM 59.0 °F 51.8 °F 77% 30.06 in 6.2 mi WSW 9.2 mph - N/A   Mostly Cloudy
6:50 PM 59.0 °F 50.0 °F 72% 30.04 in 6.2 mi WSW 15.0 mph - N/A   Mostly Cloudy
7:50 PM 59.0 °F 50.0 °F 72% 30.06 in 6.2 mi WSW 13.8 mph - N/A   Mostly Cloudy
8:50 PM 55.4 °F 50.0 °F 82% 30.06 in 6.2 mi WSW 11.5 mph - N/A   Scattered Clouds
9:50 PM 53.6 °F 48.2 °F 82% 30.06 in 6.2 mi WSW 10.4 mph - N/A   Partly Cloudy
10:50 PM 51.8 °F 48.2 °F 88% 30.06 in 6.2 mi WSW 6.9 mph - N/A   Partly Cloudy
11:50 PM 51.8 °F 50.0 °F 94% 30.09 in - SW 5.8 mph - N/A   Clear